Location: Opava
(49.9500°N, 17.9170°E)
Time: 14:49:25
(UTC+02:00)

ISS - Visible Passes

Search period start: 17 October 2019 00:00
Search period end: 27 October 2019 00:00
Orbit: 411 x 421 km, 51.6° (Epoch: 17 October)

Date Brightness Start Highest point End Pass type
(mag) Time Alt. Az. Time Alt. Az. Time Alt. Az.
24 Oct -1.2 06:50:26 10° SSW 06:53:05 21° SE 06:55:42 10° E visible
25 Oct -0.8 06:02:47 10° S 06:04:42 14° SE 06:06:36 10° ESE visible
26 Oct -2.6 06:49:11 10° SW 06:52:23 42° SSE 06:55:37 10° E visible
